SL-8 DEB, 1617

Orbit data source: Space-Track

SL-8 DEB, 1617 is space debris in LEO originally from a launch on Sat, 18 Sep 1965 UTC launched from the Tyuratam Missile And Space Complex (TTMTR). Debris objects in space refer to the collection of defunct objects orbiting the Earth. Examples of debris include non-operational satellites, rocket bodies, and fragments generated from explosions, collisions, or faulty payload assembly.

Loading next visibility...
Identifier
1617, 1965-073J
Orbit
LEO
Country
Flag of CISCIS
Related business
Manufacturer
Unknown
Mission
Spacecraft
Bus & Motor
Unknown
Mass
Unknown
Launch date (UTC)
Icon of a cake. It is the launch day of the satellite!1965-09-18 (60 years ago)
Launch vehicle
Unknown
Launch site
Tyuratam Missile And Space Complex (TTMTR)
Object type
Payload
Rocket body
Debris
Shape & HBR
Unknown
Radar Cross Section
Medium (>0.1 m² and <1 m²)

Expand to show TLE details & history
Last TLE update: 16 hours ago

TLE from 16 hours ago
0 SL-8 DEB
1 01617U 65073J   25260.76124448 -.00000066  00000-0  18192-3 0  9994
2 01617  56.1298  59.1406 0235677 314.2177 141.2866 12.34735560696799
Epoch: 2025-09-17T18:16Z
TLE epoch observation values (Epoch: 2025-09-17T18:16:11.523Z)
Latitude
55.59714°
Longitude
-109.13231°
Altitude
1,683.61 km
Speed
6.973 km/s
True Right ascension
10h 47m 23s
True Declination
55° 27' 18"
Sunlit
Object was in daylight at epoch
Visualization orbit readout
Latitude
Unknown
Longitude
Unknown
Altitude
Unknown
Speed
Unknown
Apparent Right ascension
Unknown
Apparent Declination
Unknown
Sunlit
N/A
Visualization observer readout
Local Sidereal Time
03:35:40
Azimuth
Unknown
Elevation
Unknown
Doppler factor
Unknown
Orbital elements
Apogee altitude
1,715.162 km
Perigee altitude
1,342.465 km
Semi-major axis
7,906.951 km
Eccentricity
0.02357
Inclination
56.1298°
RAAN
59.1406°
Arg. of periapsis
314.2177°
True anomaly
142.93745°
Mean anomaly
141.2866°
Eccentric anomaly
142.11579°
Mean motion
3.08695 °/min
Orbital period
116.62 mins
BSTAR
0.00018192
Loading maneuver chart data...
Computing Atmospheric mass density...
Loading historical data...
Loading historical data...
Loading historical data...
Loading historical data...
Loading historical data...
Loading historical data...
Loading historical data...

Documentation

Showing up to 5 results
|